P/2017 G2 ( PanSTARRS )

Japanese version
Home page
Updated on October 8, 2017

---------------------------------------------------------------------

* Profile

Discovery Date April 3, 2017
Magnitude 20.4 mag
Discoverer Pan-STARRS 1 telescope (Haleakala)

* Pictures

* Orbital Elements

Epoch 2017 June 16.0 TT = JDT 2457920.5
T 2017 June 13.91267 TT                                 MPCW
q   2.8462374            (2000.0)            P               Q
n   0.04244513     Peri.  105.93956     -0.68296389     +0.01122386
a   8.1392455      Node    79.81859     -0.42728063     -0.81710958
e   0.6503070      Incl.   47.90642     +0.59244543     -0.57637310
P  23.22
From 156 observations 2017 Mar. 18-July 26, mean residual 0".4.

* Magnitudes Graph

        m1 = -2.0 + 5 log d + 40 log r(t - 70)

---------------------------------------------------------------------

The orbital elements are published on M.P.E.C. 2017-T14.
The magnitudes graphs are made with Comet for Windows.

---------------------------------------------------------------------

Copyright(C) Seiichi Yoshida (comet@aerith.net). All rights reserved.